[[{"header":{"parameterUnit":"m.s-1","parameterCategory":1,"la1":30.2991,"la2":30.254,"lo1":-89.0895,"lo2":-89.0444,"dx":0.0017,"dy":0.0017,"nx":28,"ny":28,"refTime":"2022-11-08T09:00:00:Z","depth":0,"parameterNumber":2,"parameterNumberName":"U-component_of_WINDS"},"data":[0,0,0,0,0,0,0,0,0,0,0,0,0,0,0,0,0,0,0,0,0,0,0,0,0,0,0,0,0,0,0,0,0,0,0,0,0,0,0,0,0,0,0,0,0,0,0,0,0,0,0,0,0,0,0,0,0,0,-1.5408,-1.5408,0,-1.5403,-1.5403,-1.5403,-1.5415,-1.5416,-1.5416,-1.5417,-1.541,-1.541,-1.5409,0,0,0,0,0,0,0,0,0,0,0,0,0,-1.5426,-1.5426,-1.5408,-1.5408,-1.5407,-1.5403,-1.5403,-1.5403,-1.5415,-1.5416,-1.5416,-1.5417,-1.541,-1.541,-1.5409,0,0,0,0,0,0,0,0,0,0,0,0,0,-1.5419,-1.5425,-1.5408,-1.5413,-1.5414,-1.5403,-1.5403,-1.5403,-1.5415,-1.5416,-1.5416,-1.5417,-1.541,-1.541,-1.5409,-1.5392,0,0,-1.5406,-1.5406,0,0,0,0,0,0,0,0,-1.542,-1.5419,-1.5412,-1.5413,-1.5413,-1.541,-1.5407,-1.5399,-1.5415,-1.5415,-1.5417,-1.5417,-1.541,-1.5409,-1.5407,-1.5392,-1.5392,-1.5406,-1.5406,-1.5405,-1.5405,0,0,0,0,0,0,0,-1.542,-1.5419,-1.5406,-1.5412,-1.5413,-1.5416,-1.5415,-1.5406,-1.5409,-1.5415,-1.5416,-1.5415,-1.541,-1.5407,-1.5407,-1.5391,-1.5406,-1.5406,-1.5405,-1.5405,-1.5362,-1.5362,0,0,0,0,0,0,-1.542,-1.5419,-1.5406,-1.5406,-1.5418,-1.5415,-1.5414,-1.5411,-1.5409,-1.5409,-1.5414,-1.5416,-1.5409,-1.5408,-1.5406,-1.5386,-1.5405,-1.5405,-1.5404,-1.5363,-1.5362,-1.5362,0,0,0,0,0,0,-1.542,-1.5419,-1.5406,-1.5413,-1.5411,-1.5414,-1.541,-1.541,-1.5408,-1.5409,-1.5409,-1.5411,-1.5409,-1.5408,-1.5396,-1.5386,-1.5404,-1.5404,-1.5364,-1.5363,-1.5362,-1.5345,0,0,0,0,0,0,-1.5421,-1.5419,-1.5413,-1.5412,-1.5411,-1.5395,-1.5409,-1.541,-1.5407,-1.5408,-1.5406,-1.5406,-1.5409,-1.5397,-1.5395,-1.5385,-1.5403,-1.5365,-1.5363,-1.5362,-1.5347,-1.5344,-1.5341,0,0,0,0,0,-1.5422,-1.5408,-1.5412,-1.541,-1.5403,-1.5395,-1.5394,-1.5398,-1.5406,-1.5399,-1.54,-1.5406,-1.5388,-1.5395,-1.5393,-1.5383,-1.5365,-1.5364,-1.5362,-1.5348,-1.5344,-1.5342,0,0,0,0,0,0,-1.5406,-1.5408,-1.5413,-1.5399,-1.5397,-1.5397,-1.5389,-1.5395,-1.539,-1.5391,-1.5397,-1.5396,-1.5383,-1.5382,-1.5391,-1.5367,-1.5378,-1.5376,-1.5367,-1.5364,-1.5362,-1.5361,-1.5402,0,0,0,0,0,-1.5401,-1.5394,-1.5396,-1.5384,-1.5383,-1.5386,-1.5383,-1.5386,-1.5384,-1.5383,-1.5383,-1.538,-1.5374,-1.5369,-1.5364,-1.5348,-1.5347,-1.534,-1.5337,-1.5335,-1.5332,-1.5323,-1.532,-1.5357,-1.5357,-1.5357,0,0,-1.539,-1.539,-1.5386,-1.538,-1.5379,-1.5372,-1.5385,-1.5377,-1.5371,-1.5382,-1.537,-1.537,-1.5368,-1.5353,-1.5347,-1.5352,-1.5323,-1.5333,-1.5331,-1.533,-1.5321,-1.5318,-1.5315,-1.5356,-1.5356,-1.5356,0,0,-1.5366,-1.5366,-1.5355,-1.5354,-1.5353,-1.5356,-1.5353,-1.5353,-1.5354,-1.5343,-1.535,-1.5344,-1.5333,-1.5331,-1.5328,-1.5305,-1.531,-1.5303,-1.5289,-1.528,-1.5277,-1.5274,-1.5264,-1.5261,-1.5301,-1.5301,-1.5301,0,-1.5352,-1.5342,-1.5349,-1.534,-1.5337,-1.5348,-1.5337,-1.5335,-1.5332,-1.5329,-1.5336,-1.5323,-1.5322,-1.5307,-1.5301,-1.5299,-1.5296,-1.5302,-1.5277,-1.5274,-1.5272,-1.5263,-1.5259,-1.53,-1.53,-1.53,-1.5301,0,-1.5324,-1.5317,-1.5309,-1.5306,-1.5302,-1.5292,-1.5298,-1.5293,-1.5298,-1.53,-1.5288,-1.5288,-1.5282,-1.528,-1.5284,-1.5265,-1.5268,-1.5276,-1.5286,-1.5267,-1.5259,-1.5255,-1.5299,-1.5299,-1.5299,-1.53,0,0,-1.5288,-1.529,-1.5287,-1.5285,-1.5285,-1.528,-1.5271,-1.5266,-1.5261,-1.526,-1.5251,-1.5242,-1.5249,-1.5247,-1.5251,-1.5243,-1.5224,-1.5252,-1.5252,-1.5245,-1.5202,-1.5195,-1.5191,-1.5228,-1.5228,-1.5227,-1.5202,0,-1.5263,-1.5247,-1.5254,-1.5237,-1.523,-1.5241,-1.5233,-1.5232,-1.5234,-1.5229,-1.5231,-1.5224,-1.5235,-1.5233,-1.5226,-1.5228,-1.5215,-1.523,-1.5219,-1.5219,-1.5217,-1.5187,-1.5179,-1.5154,-1.5199,-1.5198,-1.5198,0,-1.5231,-1.5228,-1.5211,-1.5213,-1.521,-1.5203,-1.5199,-1.5194,-1.5193,-1.5195,-1.5193,-1.5199,-1.519,-1.5202,-1.5189,-1.5199,-1.5196,-1.5196,-1.5195,-1.5192,-1.5205,-1.5181,-1.5147,-1.5142,-1.5193,-1.5193,-1.5194,0,-1.5203,-1.5196,-1.5184,-1.5183,-1.5185,-1.518,-1.518,-1.5181,-1.5177,-1.5174,-1.5172,-1.5168,-1.5165,-1.5162,-1.5167,-1.5176,-1.5152,-1.5165,-1.5152,-1.5152,-1.5145,-1.5145,-1.5107,-1.5146,-1.5147,-1.5147,-1.5147,0,-1.5173,-1.5162,-1.5172,-1.5165,-1.5152,-1.5161,-1.5148,-1.515,-1.5151,-1.5143,-1.5154,-1.5147,-1.5155,-1.5149,-1.5153,-1.5141,-1.514,-1.514,-1.5141,-1.5138,-1.5138,-1.5134,-1.5135,-1.5146,-1.5146,-1.5146,-1.5146,0,-1.5139,-1.5146,-1.5134,-1.5138,-1.5139,-1.5129,-1.5132,-1.5125,-1.5129,-1.512,-1.5119,-1.5124,-1.5117,-1.5123,-1.5116,-1.5119,-1.5102,-1.5107,-1.5102,-1.5103,-1.5089,-1.5089,-1.5046,-1.504,-1.5085,-1.5085,-1.5084,0,-1.5118,-1.511,-1.5113,-1.511,-1.511,-1.5104,-1.5101,-1.511,-1.5106,-1.5106,-1.5099,-1.5093,-1.5089,-1.5078,-1.5081,-1.5076,-1.5079,-1.5064,-1.5078,-1.5075,-1.5076,-1.5076,-1.5074,-1.506,-1.506,-1.506,-1.5059,0,-1.508,-1.5084,-1.5079,-1.5077,-1.5073,-1.5071,-1.507,-1.5066,-1.5075,-1.5071,-1.5065,-1.5062,-1.5056,-1.505,-1.5046,-1.5046,-1.5053,-1.5056,-1.5052,-1.5047,-1.5044,-1.5044,-1.5092,-1.5056,-1.5056,-1.5056,-1.5056,-1.5057,-1.505,-1.5043,-1.5044,-1.5039,-1.504,-1.5039,-1.5032,-1.5036,-1.5031,-1.5027,-1.5033,-1.5025,-1.5026,-1.5022,-1.5021,-1.5015,-1.5021,-1.5016,-1.5014,-1.5012,-1.5009,-1.5048,-1.5015,-1.5015,-1.5015,-1.5015,-1.5015,0,-1.501,-1.5012,-1.5008,-1.5006,-1.5002,-1.5012,-1.5011,-1.5007,-1.5,-1.5,-1.4996,-1.4989,-1.4984,-1.4988,-1.4983,-1.4977,-1.498,-1.4975,-1.4974,-1.4974,-1.5005,-1.5008,-1.4973,-1.4973,-1.4973,-1.4973,-1.4973,-1.4973,-1.4988,-1.4977,-1.4981,-1.497,-1.4972,-1.4965,-1.4964,-1.4962,-1.4963,-1.4955,-1.495,-1.4954,-1.4955,-1.4951,-1.4946,-1.4948,-1.4944,-1.4938,-1.494,-1.4968,-1.4972,-1.4976,-1.4978,-1.4938,-1.4938,-1.4909,-1.4909,-1.4908]},{"header":{"parameterUnit":"m.s-1","parameterCategory":1,"la1":30.2991,"la2":30.254,"lo1":-89.0895,"lo2":-89.0444,"dx":0.0017,"dy":0.0017,"nx":28,"ny":28,"refTime":"2022-11-08T09:00:00:Z","depth":0,"parameterNumber":3,"parameterNumberName":"V-component_of_WINDS"},"data":[0,0,0,0,0,0,0,0,0,0,0,0,0,0,0,0,0,0,0,0,0,0,0,0,0,0,0,0,0,0,0,0,0,0,0,0,0,0,0,0,0,0,0,0,0,0,0,0,0,0,0,0,0,0,0,0,0,0,-3.0965,-3.0965,0,-3.0979,-3.0979,-3.0979,-3.096,-3.0959,-3.0958,-3.0958,-3.097,-3.0971,-3.0972,0,0,0,0,0,0,0,0,0,0,0,0,0,-3.0921,-3.0922,-3.0965,-3.0965,-3.0965,-3.0979,-3.0979,-3.0979,-3.096,-3.0959,-3.0958,-3.0957,-3.097,-3.0971,-3.0972,0,0,0,0,0,0,0,0,0,0,0,0,0,-3.0938,-3.0922,-3.0965,-3.0957,-3.0957,-3.0979,-3.0979,-3.0979,-3.096,-3.0959,-3.0958,-3.0957,-3.0969,-3.0971,-3.0972,-3.1002,0,0,-3.0977,-3.0977,0,0,0,0,0,0,0,0,-3.0937,-3.0939,-3.0958,-3.0958,-3.0957,-3.0966,-3.0968,-3.0987,-3.096,-3.0959,-3.0958,-3.0956,-3.097,-3.0971,-3.0976,-3.1002,-3.1003,-3.0977,-3.0978,-3.0978,-3.0979,0,0,0,0,0,0,0,-3.0936,-3.0939,-3.097,-3.0958,-3.0958,-3.0953,-3.0954,-3.0971,-3.097,-3.0959,-3.0957,-3.0959,-3.0969,-3.0974,-3.0976,-3.1003,-3.0977,-3.0978,-3.0979,-3.098,-3.1055,-3.1056,0,0,0,0,0,0,-3.0936,-3.0938,-3.097,-3.0971,-3.0944,-3.0954,-3.0956,-3.0964,-3.0969,-3.0969,-3.096,-3.0958,-3.0972,-3.0974,-3.0976,-3.1012,-3.0978,-3.098,-3.0981,-3.1054,-3.1056,-3.1057,0,0,0,0,0,0,-3.0935,-3.0939,-3.0969,-3.0954,-3.0957,-3.0956,-3.0966,-3.0965,-3.097,-3.0971,-3.097,-3.0966,-3.0972,-3.0974,-3.0996,-3.1012,-3.098,-3.0982,-3.1053,-3.1055,-3.1056,-3.1082,0,0,0,0,0,0,-3.0934,-3.0938,-3.095,-3.0954,-3.0958,-3.0989,-3.0967,-3.0966,-3.0973,-3.0971,-3.0976,-3.0976,-3.0971,-3.0994,-3.0997,-3.1013,-3.0983,-3.1051,-3.1054,-3.1056,-3.108,-3.1084,-3.1088,0,0,0,0,0,-3.0932,-3.0956,-3.095,-3.0954,-3.0972,-3.099,-3.0992,-3.0987,-3.0975,-3.0986,-3.0986,-3.0975,-3.101,-3.0996,-3.1,-3.1016,-3.105,-3.1053,-3.1055,-3.1078,-3.1084,-3.1088,0,0,0,0,0,0,-3.0952,-3.0956,-3.095,-3.0976,-3.0983,-3.0986,-3.1,-3.0993,-3.1003,-3.1,-3.0993,-3.0994,-3.1017,-3.1019,-3.1004,-3.1046,-3.1028,-3.1031,-3.1044,-3.1049,-3.1053,-3.1052,-3.0984,0,0,0,0,0,-3.096,-3.0974,-3.0977,-3.0999,-3.1003,-3.1001,-3.1009,-3.1004,-3.1011,-3.1013,-3.1015,-3.1021,-3.1033,-3.1041,-3.1052,-3.108,-3.1081,-3.1093,-3.1098,-3.1101,-3.1104,-3.112,-3.1125,-3.1065,-3.1065,-3.1065,0,0,-3.0975,-3.0979,-3.0989,-3.1004,-3.1008,-3.1023,-3.1004,-3.102,-3.1031,-3.1015,-3.1036,-3.1038,-3.1044,-3.1069,-3.108,-3.1071,-3.1121,-3.1105,-3.1107,-3.1108,-3.1123,-3.1129,-3.1134,-3.1067,-3.1067,-3.1066,0,0,-3.1011,-3.1016,-3.1036,-3.1041,-3.1049,-3.1048,-3.1052,-3.1057,-3.1058,-3.1079,-3.1068,-3.1081,-3.1102,-3.1107,-3.1112,-3.1152,-3.1143,-3.1156,-3.1178,-3.1194,-3.1198,-3.1202,-3.1217,-3.1222,-3.1159,-3.1159,-3.1159,0,-3.1029,-3.1052,-3.1047,-3.1064,-3.1071,-3.1059,-3.1079,-3.1084,-3.1095,-3.11,-3.109,-3.1117,-3.112,-3.1147,-3.1157,-3.1161,-3.1167,-3.1155,-3.1198,-3.1202,-3.1206,-3.122,-3.1225,-3.116,-3.116,-3.116,-3.116,0,-3.1074,-3.1089,-3.1104,-3.1116,-3.1125,-3.1143,-3.1141,-3.1151,-3.1146,-3.1146,-3.1168,-3.1172,-3.1184,-3.119,-3.1185,-3.1216,-3.121,-3.1199,-3.1181,-3.1213,-3.1226,-3.1231,-3.1163,-3.1162,-3.1162,-3.1161,0,0,-3.1121,-3.1132,-3.1137,-3.1143,-3.1151,-3.1163,-3.1181,-3.1194,-3.1202,-3.121,-3.1225,-3.1244,-3.1234,-3.1241,-3.1236,-3.125,-3.1281,-3.1237,-3.1237,-3.1245,-3.1316,-3.1325,-3.1331,-3.1275,-3.1276,-3.1277,-3.1316,0,-3.1158,-3.119,-3.1187,-3.1217,-3.1232,-3.1221,-3.1237,-3.1244,-3.1245,-3.1257,-3.1257,-3.1271,-3.1257,-3.1261,-3.1274,-3.1275,-3.1295,-3.1272,-3.1289,-3.129,-3.1288,-3.1337,-3.1346,-3.1382,-3.1321,-3.1322,-3.1322,0,-3.1204,-3.1215,-3.1247,-3.1254,-3.126,-3.1275,-3.1286,-3.1298,-3.1306,-3.1306,-3.1313,-3.1307,-3.1325,-3.1308,-3.1333,-3.1317,-3.1324,-3.1326,-3.1327,-3.1328,-3.1308,-3.134,-3.1394,-3.1399,-3.133,-3.1329,-3.1329,0,-3.1236,-3.1259,-3.1281,-3.1286,-3.1295,-3.1305,-3.1309,-3.1316,-3.1324,-3.1335,-3.134,-3.1352,-3.1359,-3.1368,-3.1365,-3.1352,-3.1391,-3.1373,-3.1392,-3.1392,-3.14,-3.14,-3.1456,-3.1405,-3.1405,-3.1404,-3.1404,0,-3.1276,-3.1296,-3.1296,-3.131,-3.1332,-3.1328,-3.1351,-3.1353,-3.136,-3.1374,-3.1365,-3.1378,-3.1374,-3.1387,-3.1385,-3.1407,-3.1409,-3.141,-3.1409,-3.1411,-3.1411,-3.1415,-3.1412,-3.1406,-3.1406,-3.1405,-3.1405,0,-3.1315,-3.1316,-3.134,-3.1347,-3.1349,-3.1365,-3.1371,-3.1384,-3.1385,-3.1403,-3.1407,-3.1408,-3.1423,-3.1421,-3.1438,-3.1436,-3.1463,-3.1459,-3.1461,-3.146,-3.1479,-3.1477,-3.154,-3.1548,-3.1492,-3.1492,-3.1493,0,-3.1341,-3.1357,-3.1366,-3.1375,-3.138,-3.1395,-3.1404,-3.1401,-3.1411,-3.1421,-3.1433,-3.1448,-3.1459,-3.1484,-3.1486,-3.1499,-3.1495,-3.1516,-3.1497,-3.1498,-3.1496,-3.1495,-3.1497,-3.152,-3.152,-3.1521,-3.1521,0,-3.1387,-3.1387,-3.14,-3.1414,-3.1425,-3.1435,-3.1445,-3.1453,-3.1451,-3.1462,-3.1478,-3.1487,-3.1505,-3.152,-3.1532,-3.1536,-3.1529,-3.1528,-3.1533,-3.1534,-3.1535,-3.1535,-3.1471,-3.1526,-3.1526,-3.1525,-3.1525,-3.1525,-3.142,-3.1434,-3.1443,-3.1458,-3.1466,-3.1475,-3.1488,-3.1491,-3.1505,-3.1519,-3.1517,-3.1535,-3.1543,-3.1559,-3.1565,-3.1579,-3.1571,-3.1578,-3.158,-3.1582,-3.1584,-3.1533,-3.1581,-3.1581,-3.1581,-3.158,-3.158,0,-3.1466,-3.1471,-3.1486,-3.15,-3.1512,-3.1505,-3.1516,-3.1527,-3.1543,-3.1552,-3.1564,-3.1582,-3.1597,-3.1601,-3.1615,-3.1625,-3.1622,-3.1629,-3.1628,-3.1629,-3.159,-3.1584,-3.1631,-3.1631,-3.1631,-3.1631,-3.1631,-3.1631,-3.1491,-3.1514,-3.1515,-3.1542,-3.1547,-3.1566,-3.1572,-3.1581,-3.1588,-3.161,-3.1623,-3.1625,-3.1632,-3.1647,-3.166,-3.1661,-3.1666,-3.1675,-3.1674,-3.1637,-3.1632,-3.1627,-3.1622,-3.1676,-3.1676,-3.1712,-3.1712,-3.1713]}]]